Tracking 20083 objects as of 10-Dec-2019
HD Live streaming from Space Station
objects crossing your sky now

PSLV DEB

Track PSLV DEB now!
10-day predictions


NORAD ID: 35536
Int'l Code: 2001-049QL
Perigee: 682.7 km
Apogee: 1,312.3 km
Inclination: 98.7 °
Period: 104.9 minutes
Semi major axis: 7368 km
RCS: 0.0116 m2 (small)
Launch date: October 22, 2001
Source: India (IND)
Launch site: SRIHARIKOTA (SRI)

Note: This is SATELLITE DEBRIS
aabbcc
Your satellite tracking list
Your tracking list is empty




NASA's NSSDC Master Catalog

Two Line Element Set (TLE):
1 35536U 01049QL  19342.90065786 -.00000096 +00000-0 -29508-4 0  9991
2 35536 098.6501 218.0056 0427226 268.1964 087.0223 13.72575301819626
Source of the keplerian elements: AFSPC